Orbital Elements at Epoch 2459200.5 (2020-Dec-17.0) TDB
Reference: JPL 15 (heliocentric ecliptic J2000)
Element | Value | Uncertainty (1-sigma) | Units |
e | .08975446677865928 | 7.7204e-08 | |
a | 3.171714534909107 | 3.3362e-08 | au |
q | 2.887038988054217 | 2.3292e-07 | au |
i | .9956258386416074 | 7.7605e-06 | deg |
node | 179.3757580309749 | 0.00031895 | deg |
peri | 7.504443007362738 | 0.0003212 | deg |
M | 63.39936066508699 | 3.4059e-05 | deg |
tp | 2458837.152695172139 (2019-Dec-19.65269517) | 0.00019667 | TDB |
period | 2063.191621584635 5.65 | 3.2553e-05 8.913e-08 | d yr |
n | .1744869435459911 | 2.753e-09 | deg/d |
Q | 3.456390081763998 | 3.6356e-08 | au |
|
| | Orbit Determination Parameters
Additional Information
|